NICK1: Arkansas River nr Nickerson, KS

Data processed at Fri Jan 05 2018 23:11


All information presented herein is the property of the government of the United States of America and may be revised or deleted at any time without prior notice.
Dissemination of this information without the expressed written consent of the Public Affairs Office, Tulsa District U.S. Army Corps of Engineers is strictly prohibited.
These data are gathered electronically and, as presented, have not undergone any form of quality control. These data are not guaranteed to be valid or correct.
Go to home page.
Go to station list.

Upstream stations:

Downstream station:
Previous Day
Next Day
Current Day
    
SHEF ID:       NICK1     ARKANSAS R NR NICKERSON, KS
STATION TYPE:  

               PRECIP     STAGE  RIV-FLOW   CONDUCT  BAT-LOAD
                   in        ft       cfs   umho/cm      volt
              Ccp-Rev   Ccp-Rev   Ccp-Rev   Ccp-Rev   Ccp-Rev
(US/Central)
01/03 00:00      0.00      8.99        87    496175     12.09
01/03 01:00      0.00      8.99        87    496175     12.09
01/03 02:00      0.00      8.99        87    510786     12.09
01/03 03:00      0.00      8.99        87    496116     12.09
01/03 04:00      0.00      8.99        87    512435     12.09
01/03 05:00      0.00      8.99        87    496087     12.01
01/03 06:00      0.00      8.98        86    500841     12.01
01/03 07:00      0.00      8.97        86     23593     12.01
01/03 08:00      0.00      8.96        86    503995     12.01
01/03 09:00      0.00      8.95        85    519084     11.14
01/03 10:00      0.00      8.95        85    510574     12.57
01/03 11:00      0.00      8.95        85    522351     13.05
01/03 12:00      0.00      8.97        86    527695     13.37
01/03 13:00      0.00      8.98        86    533306     13.37
01/03 14:00      0.00      8.98        86    524358     13.21
01/03 15:00      0.00      8.99        87    558221     13.21
01/03 16:00      0.00      9.01        88    544655     13.37
01/03 17:00      0.00      9.01        88    544622     13.44
01/03 18:00      0.00      9.01        88    527974     12.81
01/03 19:00      0.00      9.01        88    570523     12.41
01/03 20:00      0.00      9.01        88    566307     12.33
01/03 21:00      0.00      9.01        88    603657     12.25
01/03 22:00      0.00      9.00        87    594475     12.17
01/03 23:00      0.00      9.00        87    606042     12.17